Heubes-Wetterstation in 44289 Dortmund
Heubes-Wetterstation

Messwerte der letzten 60 Minuten im Minuten-Intervall (Wetterstation 44289 Dortmund)

Datum & Uhrzeit Temp. Feucht. Wind-Ø Böen Sekt.  Regen Rate Luftdruck
02.12.2021 - 13:263.3 °C88%5 km/h 13 km/h SW0.0 mm 0.0 mm 1000.4 hPa, gleichbleibend
02.12.2021 - 13:253.3 °C88%5 km/h 10 km/h W-SW0.0 mm 0.0 mm 1000.4 hPa, langsam fallend
02.12.2021 - 13:243.3 °C88%5 km/h 7 km/h W0.0 mm 0.0 mm 1000.5 hPa, langsam steigend
02.12.2021 - 13:233.3 °C88%6 km/h 10 km/h W0.0 mm 0.0 mm 1000.4 hPa, gleichbleibend
02.12.2021 - 13:223.3 °C89%7 km/h 11 km/h W0.0 mm 0.0 mm 1000.4 hPa, langsam fallend
02.12.2021 - 13:213.3 °C89%7 km/h 7 km/h W-SW0.0 mm 0.0 mm 1000.5 hPa, gleichbleibend
02.12.2021 - 13:203.3 °C89%7 km/h 8 km/h SW0.0 mm 0.0 mm 1000.5 hPa, langsam steigend
02.12.2021 - 13:193.2 °C89%7 km/h 10 km/h S-SW0.0 mm 0.0 mm 1000.4 hPa, gleichbleibend
02.12.2021 - 13:183.2 °C88%8 km/h 11 km/h SW0.0 mm 0.0 mm 1000.4 hPa, gleichbleibend
02.12.2021 - 13:173.2 °C89%8 km/h 7 km/h W0.0 mm 0.0 mm 1000.4 hPa, langsam steigend
02.12.2021 - 13:163.2 °C89%8 km/h 13 km/h W0.0 mm 0.0 mm 1000.3 hPa, gleichbleibend
02.12.2021 - 13:153.2 °C89%8 km/h 5 km/h W-SW0.0 mm 0.0 mm 1000.3 hPa, gleichbleibend
02.12.2021 - 13:143.2 °C89%8 km/h 13 km/h S-SW0.0 mm 0.0 mm 1000.3 hPa, gleichbleibend
02.12.2021 - 13:133.1 °C89%8 km/h 18 km/h SW0.0 mm 0.0 mm 1000.3 hPa, gleichbleibend
02.12.2021 - 13:123.1 °C89%8 km/h 16 km/h S-SW0.0 mm 0.0 mm 1000.2 hPa, gleichbleibend
02.12.2021 - 13:113.1 °C89%8 km/h 13 km/h W-SW0.0 mm 0.0 mm 1000.3 hPa, gleichbleibend
02.12.2021 - 13:103.1 °C89%8 km/h 19 km/h W0.0 mm 0.0 mm 1000.3 hPa, gleichbleibend
02.12.2021 - 13:093.1 °C89%8 km/h 16 km/h W0.0 mm 0.0 mm 1000.3 hPa, gleichbleibend
02.12.2021 - 13:083.1 °C89%8 km/h 10 km/h SW0.0 mm 0.0 mm 1000.3 hPa, gleichbleibend
02.12.2021 - 13:073.0 °C89%7 km/h 14 km/h W-SW0.0 mm 0.0 mm 1000.3 hPa, gleichbleibend
02.12.2021 - 13:063.0 °C89%7 km/h 13 km/h SW0.0 mm 0.0 mm 1000.3 hPa, gleichbleibend
02.12.2021 - 13:053.1 °C89%8 km/h 11 km/h W-SW0.0 mm 0.0 mm 1000.3 hPa, gleichbleibend
02.12.2021 - 13:043.0 °C89%7 km/h 18 km/h W0.0 mm 0.0 mm 1000.3 hPa, gleichbleibend
02.12.2021 - 13:033.1 °C89%6 km/h 14 km/h SW0.0 mm 0.0 mm 1000.3 hPa, gleichbleibend
02.12.2021 - 13:023.1 °C89%5 km/h 21 km/h W0.0 mm 0.0 mm 1000.3 hPa, gleichbleibend
02.12.2021 - 13:013.1 °C89%5 km/h 10 km/h W0.0 mm 0.0 mm 1000.3 hPa, gleichbleibend
02.12.2021 - 13:003.1 °C89%6 km/h 11 km/h W0.0 mm 0.0 mm 1000.3 hPa, gleichbleibend
02.12.2021 - 12:593.1 °C89%7 km/h 13 km/h SW0.0 mm 0.0 mm 1000.3 hPa, gleichbleibend
02.12.2021 - 12:583.1 °C89%7 km/h 7 km/h W-SW0.0 mm 0.0 mm 1000.3 hPa, gleichbleibend
02.12.2021 - 12:573.1 °C89%8 km/h 11 km/h W0.0 mm 0.0 mm 1000.3 hPa, gleichbleibend
02.12.2021 - 12:563.1 °C89%8 km/h 13 km/h S0.0 mm 0.0 mm 1000.3 hPa, gleichbleibend
02.12.2021 - 12:553.1 °C89%8 km/h 14 km/h W-SW0.0 mm 0.0 mm 1000.2 hPa, gleichbleibend
02.12.2021 - 12:543.1 °C89%8 km/h 7 km/h W0.0 mm 0.0 mm 1000.2 hPa, gleichbleibend
02.12.2021 - 12:533.1 °C89%9 km/h 5 km/h SW0.0 mm 0.0 mm 1000.2 hPa, gleichbleibend
02.12.2021 - 12:523.1 °C89%10 km/h 10 km/h SW0.0 mm 0.0 mm 1000.2 hPa, gleichbleibend
02.12.2021 - 12:513.1 °C89%9 km/h 11 km/h SW0.0 mm 0.0 mm 1000.2 hPa, gleichbleibend
02.12.2021 - 12:503.1 °C89%8 km/h 18 km/h W-SW0.0 mm 0.0 mm 1000.2 hPa, gleichbleibend
02.12.2021 - 12:493.1 °C89.5%8 km/h 14 km/h W-NW0.0 mm 0.0 mm 1000.2 hPa, gleichbleibend
02.12.2021 - 12:483.1 °C90%7 km/h 19 km/h W0.0 mm 0.0 mm 1000.2 hPa, langsam steigend
02.12.2021 - 12:473.1 °C90%7 km/h 18 km/h W-SW0.0 mm 0.0 mm 1000.1 hPa, gleichbleibend
02.12.2021 - 12:463.1 °C89%7 km/h 13 km/h W0.0 mm 0.0 mm 1000.1 hPa, gleichbleibend
02.12.2021 - 12:453.1 °C90%7 km/h 11 km/h W-SW0.0 mm 0.0 mm 1000.1 hPa, gleichbleibend
02.12.2021 - 12:443.1 °C90%7 km/h 18 km/h W0.0 mm 0.0 mm 1000.1 hPa, gleichbleibend
02.12.2021 - 12:433.1 °C90%8 km/h 10 km/h W-SW0.0 mm 0.0 mm 1000.1 hPa, gleichbleibend
02.12.2021 - 12:423.1 °C90%8 km/h 10 km/h SW0.0 mm 0.0 mm 1000.1 hPa, gleichbleibend
02.12.2021 - 12:413.1 °C89.5%8 km/h 8 km/h W-SW0.0 mm 0.0 mm 1000.1 hPa, gleichbleibend
02.12.2021 - 12:403.1 °C90%8 km/h 16 km/h W-SW0.0 mm 0.0 mm 1000.1 hPa, gleichbleibend
02.12.2021 - 12:393.1 °C90%9 km/h 16 km/h SW0.0 mm 0.0 mm 1000.1 hPa, langsam fallend
02.12.2021 - 12:383.1 °C90%10 km/h 11 km/h W0.0 mm 0.0 mm 1000.2 hPa, langsam steigend
02.12.2021 - 12:373.1 °C90%9 km/h 16 km/h W0.0 mm 0.0 mm 1000.1 hPa, langsam fallend
02.12.2021 - 12:363.1 °C90%8 km/h 16 km/h W-NW0.0 mm 0.0 mm 1000.2 hPa, gleichbleibend
02.12.2021 - 12:353.1 °C90%8 km/h 14 km/h W0.0 mm 0.0 mm 1000.2 hPa, gleichbleibend
02.12.2021 - 12:343.1 °C90%8 km/h 13 km/h W0.0 mm 0.0 mm 1000.2 hPa, gleichbleibend
02.12.2021 - 12:333.1 °C90%7 km/h 16 km/h W-NW0.0 mm 0.0 mm 1000.2 hPa, gleichbleibend
02.12.2021 - 12:323.1 °C90%7 km/h 18 km/h W0.0 mm 0.0 mm 1000.2 hPa, gleichbleibend
02.12.2021 - 12:313.1 °C90%5 km/h 11 km/h W0.0 mm 0.0 mm 1000.2 hPa, gleichbleibend
02.12.2021 - 12:303.1 °C90%5 km/h 13 km/h W-SW0.0 mm 0.0 mm 1000.2 hPa, gleichbleibend
02.12.2021 - 12:293.1 °C90%5 km/h 14 km/h W0.0 mm 0.0 mm 1000.2 hPa, langsam steigend
02.12.2021 - 12:283.1 °C90%4 km/h 14 km/h W0.0 mm 0.0 mm 1000.1 hPa, gleichbleibend
02.12.2021 - 12:273.1 °C90%4 km/h 16 km/h W0.0 mm 0.0 mm 1000.1 hPa, gleichbleibend